"Pseudo-MPEC" for P11pnj7

Created 2021 Nov 27 0:07:10 UT using Find_Orb

Click here for an explanation of pseudo-MPECs

 
 Astrometry: 
     P11pnj7  C2012 01 149gs585E7PAstrometry((@F@uFC]D=+J7gZcGgredacted;fLmY:F51
     P11pnj7  C2012 01 14@H,/nC_PZQUwwlunQy+sYH@hFH!`hJGxD7HJKy$Zw!MLoXLUQ_WKF51
     P11pnj7  C2012 01 14`Fr.G2PqY(i$tl(Ek-Bb-o2eAAqZxB@D:(F'Yq`;a5SG[x.;uJHjF51
     P11pnj7  C2016 06 08\ge#^EV'@u[r=w3[f@\Gjb9;d]QclickRU6H1qBemDfIZ8@1Kwk^F51
     P11pnj7  C2016 06 08Ec)a#DL:u$=*:?ofa53_U\?mWPrY(cq'Th)RnD(ra2g\-Aq@LVs3F51
     P11pnj7  C2016 06 08*kF2.r94L\%P-#WsD7UQ2qlR'lK;wpac$3W9`91eC'L8ExOUO;[-F51
     P11pnj7  C2016 06 284(9wQd8nhLK'2lQsW1;:hereWDUmyc[[=tXH^J'vBbb`Um(Jsn'hF51
     P11pnj7  C2016 06 28b8f+e[fFR;XS)ZY^wBy,iU4:(\ApE37=?x_#P5*.Bx9?t8KcG:WPF51
     P11pnj7  C2016 06 28vRAf7^+n6jq@E,$-%%OWoQVtn#4L-1$.,jEEO95tdVsK4P9U-W$8F51
     P11pnj7  C2016 07 05gy,kgXRR7`_',^1ys+d)$5*?W9LiVqJ!^for)T7@:P!42-qku-/YF51
     P11pnj7  C2016 07 05L@sR/kp@btAFWO7wjgSD!?Dc7T2#=F)7s5!d_ALZL7ldi\QBZ-a%F51
     P11pnj7  C2016 07 05pxu$eSue\2^rgHW.N7%TOqrr-$:g1UF[.v_MO481v]hx;P,UZ5S-F51
     P11pnj7  C2016 07 05gW!UB1U#?QFZ*^F*4)LfD#l+2@mY(Zj]i2nyig*_3eiK1t9:F%9#F51
     P11pnj7  C2018 12 15KxjRr]1qV^aBR:2tDK-c;Yt5Li5R\9#Z]UR@A-7QkRswl_qk1YTLF51
     P11pnj7  C2018 12 15l);r*J.CNhZ]tX'l/Lx)$EBu6-.D3MNsy3C-0KOk/Jkg+7wX6Z\[F51
     P11pnj7  C2018 12 15V1KdtoQtwZGvmk*#3nK]:mCQjUg$74'xvQPKN0rJWc.ZZBO+YiRtF51
     P11pnj7  C2018 12 15vWH5%g!Qq%[yO88svZ\mk4Je1['e*/TexplanationBd+9E0OD9gF51
     P11pnj7  C2021 10 31`Q`7esYaa]Mr.8Hbl14PG(u1Ws%x309JvUw/=9lD1d,#3opxe*(gF51
     P11pnj7  C2021 10 31fWxwPWvh5BdjtM-3sQx]^J-r#LV+9C=l@GIpe7+.Uv(\];Uimm'oF51
     P11pnj7  C2021 10 31=hgt:xTuw;DI20;qrJmT-+ItcU2'CS!]Q[kLXkB#o.gd%_4M9u2bF51
     P11pnj7  C2021 11 25l`XU;j68xlOOMAV`fx=[`^y?C4l6/$R!d01YUGqS9G\AB8'.jxDPF51
     P11pnj7  C2021 11 25\CJY1Iuu!P9eas@/jMHk0i3HJvm@w^=GqO@J9ATRa%'%p/';?qOAF51
     P11pnj7  C2021 11 25uK4xEf6b3.kQNoDJJw1@lEL!LhtwqMB*%Ap;]^#O5Rx4VH1gBg3gF51
     P11pnj7  C2021 11 25n5n\ck-%)dCJ49-r6bH5v$7aEZNY!vHoX1a?kYH/WrCpZpfpX5+.F51
     P11pnj7  C2021 11 25mwo9WwLXtNN,9iL*tmYG7)'-pQ?_7M,4vyks%#GS+.mtZQQ.E0U\F51

Station data:
(F51) Pan-STARRS 1, Haleakala  (N20.707235 W156.255910)  US/Hawaii.
   Observers N. Primak, A. Schultz, S. Watters, J. Thiel, T. Goggia. Measurer
   PS1 Science Consortium. 1.8-m Ritchey-Chrétien + CCD.

Orbital elements:  P11pnj7
   Perihelion 2022 Oct 15.401087 +/- 0.000270462 TT =  9:37:33 (JD 2459867.901087)
Epoch 2021 Nov 25.0 TT = JDT 2459543.5   Earth MOID: 0.8736   AutoNEOCP
M 268.48118800 +/- 0.0000732        (J2000 ecliptic)
n   0.28211623 +/- 1.16612e-8       Peri.  272.16902 +/- 0.0000755
a   2.30241708 +/- 6.34456e-8       Node   249.00223 +/- 0.0000409
e   0.2546101 +/- 1.36192e-7        Incl.   21.97909 +/- 0.0000286
P   3.49                   H 18.3   G  0.15   U  0.7  
q 1.71619828 +/- 3.32906e-7    Q 2.88863589 +/- 2.95616e-7
From 25 observations 2012 Jan. 14-2021 Nov. 25; mean residual 0".11
Residuals in arcseconds: 
120114 F51  .01+  .15+    160705 F51  .27+  .16-    211031 F51  .06-  .11+    
120114 F51  .01+  .18-    160705 F51  .02-  .11+    211031 F51  .09-  .05-    
120114 F51  .01+  .09+    160705 F51  .09+  .02-    211125 F51  .06+  .18+    
160608 F51  .04-  .09+    160705 F51  .23+  .23+    211125 F51  .09+  .01+    
160608 F51  .06-  .08+    181215 F51  .02-  .01-    211125 F51  .11+  .07-    
160608 F51  .06-  .14+    181215 F51  .02-  .03+    211125 F51  .03+  .08+    
160628 F51  .03-  .00     181215 F51  .05+  .01-    211125 F51  .05-  .09-    
160628 F51  .17-  .05+    181215 F51  .05+  .10+    
160628 F51  .16-  .23-    211031 F51  .06-  .05+    

Ephemerides (geocentric):
Date (UTC) HH   RA              Dec         delta   r     elong  mag " sig PA
---- -- -- --  -------------   -----------  ------ ------ -----  --- ---- ---
2021 11 27 00  01 32 14.226   +25 48 56.11  1.5904 2.4546 143.5 22.1 3.7m 116
2021 11 27 01  01 32 13.007   +25 48 18.88  1.5905 2.4545 143.4 22.1 3.7m 116
2021 11 27 02  01 32 11.791   +25 47 41.67  1.5907 2.4544 143.4 22.1 3.7m 116
2021 11 27 03  01 32 10.579   +25 47 04.46  1.5909 2.4543 143.3 22.1 3.7m 116
2021 11 27 04  01 32 09.370   +25 46 27.26  1.5911 2.4542 143.3 22.1 3.7m 116
2021 11 27 05  01 32 08.164   +25 45 50.07  1.5913 2.4540 143.3 22.1 3.7m 116
2021 11 27 06  01 32 06.961   +25 45 12.89  1.5915 2.4539 143.2 22.1 3.7m 116
2021 11 27 07  01 32 05.762   +25 44 35.72  1.5917 2.4538 143.2 22.1 3.7m 117
2021 11 27 08  01 32 04.566   +25 43 58.55  1.5919 2.4537 143.1 22.1 3.7m 117
2021 11 27 09  01 32 03.374   +25 43 21.40  1.5920 2.4536 143.1 22.1 3.7m 117
2021 11 27 10  01 32 02.185   +25 42 44.25  1.5922 2.4535 143.0 22.1 3.7m 117
2021 11 27 11  01 32 00.999   +25 42 07.12  1.5924 2.4534 143.0 22.1 3.7m 117
2021 11 27 12  01 31 59.816   +25 41 29.99  1.5926 2.4533 143.0 22.1 3.7m 117
2021 11 27 13  01 31 58.637   +25 40 52.87  1.5928 2.4532 142.9 22.1 3.7m 117
2021 11 27 14  01 31 57.461   +25 40 15.76  1.5930 2.4531 142.9 22.1 3.7m 117
2021 11 27 15  01 31 56.288   +25 39 38.66  1.5932 2.4530 142.8 22.1 3.7m 117
2021 11 27 16  01 31 55.119   +25 39 01.57  1.5934 2.4528 142.8 22.1 3.7m 117
2021 11 27 17  01 31 53.953   +25 38 24.49  1.5936 2.4527 142.7 22.1 3.7m 117
2021 11 27 18  01 31 52.790   +25 37 47.42  1.5938 2.4526 142.7 22.1 3.7m 117
2021 11 27 19  01 31 51.631   +25 37 10.36  1.5940 2.4525 142.7 22.1 3.7m 117
2021 11 27 20  01 31 50.475   +25 36 33.31  1.5942 2.4524 142.6 22.1 3.7m 117
2021 11 27 21  01 31 49.322   +25 35 56.26  1.5944 2.4523 142.6 22.1 3.7m 117
2021 11 27 22  01 31 48.173   +25 35 19.23  1.5946 2.4522 142.5 22.1 3.7m 117
2021 11 27 23  01 31 47.027   +25 34 42.21  1.5948 2.4521 142.5 22.1 3.7m 117
2021 11 28 00  01 31 45.884   +25 34 05.19  1.5950 2.4520 142.4 22.1 3.7m 117
2021 11 28 01  01 31 44.745   +25 33 28.19  1.5951 2.4519 142.4 22.1 3.7m 117
2021 11 28 02  01 31 43.609   +25 32 51.20  1.5953 2.4518 142.4 22.1 3.7m 117
2021 11 28 03  01 31 42.476   +25 32 14.21  1.5955 2.4516 142.3 22.1 3.7m 117
2021 11 28 04  01 31 41.347   +25 31 37.24  1.5957 2.4515 142.3 22.1 3.7m 117
2021 11 28 05  01 31 40.221   +25 31 00.28  1.5959 2.4514 142.2 22.1 3.8m 117
2021 11 28 06  01 31 39.098   +25 30 23.32  1.5961 2.4513 142.2 22.1 3.8m 117
2021 11 28 07  01 31 37.979   +25 29 46.38  1.5963 2.4512 142.1 22.1 3.8m 117
2021 11 28 08  01 31 36.863   +25 29 09.44  1.5965 2.4511 142.1 22.1 3.8m 117
2021 11 28 09  01 31 35.750   +25 28 32.52  1.5967 2.4510 142.1 22.1 3.8m 117
2021 11 28 10  01 31 34.641   +25 27 55.61  1.5969 2.4509 142.0 22.1 3.8m 117
2021 11 28 11  01 31 33.535   +25 27 18.71  1.5971 2.4508 142.0 22.1 3.8m 117
2021 11 28 12  01 31 32.433   +25 26 41.81  1.5973 2.4507 141.9 22.1 3.8m 117
2021 11 28 13  01 31 31.333   +25 26 04.93  1.5975 2.4505 141.9 22.1 3.8m 117
2021 11 28 14  01 31 30.237   +25 25 28.06  1.5977 2.4504 141.8 22.1 3.8m 117
2021 11 28 15  01 31 29.145   +25 24 51.20  1.5979 2.4503 141.8 22.1 3.8m 117
2021 11 28 16  01 31 28.056   +25 24 14.35  1.5981 2.4502 141.7 22.1 3.8m 117
2021 11 28 17  01 31 26.970   +25 23 37.51  1.5983 2.4501 141.7 22.1 3.8m 117
2021 11 28 18  01 31 25.887   +25 23 00.68  1.5986 2.4500 141.7 22.1 3.8m 117
2021 11 28 19  01 31 24.808   +25 22 23.86  1.5988 2.4499 141.6 22.1 3.8m 117
2021 11 28 20  01 31 23.732   +25 21 47.05  1.5990 2.4498 141.6 22.1 3.8m 117
2021 11 28 21  01 31 22.660   +25 21 10.25  1.5992 2.4497 141.5 22.1 3.8m 117
2021 11 28 22  01 31 21.591   +25 20 33.47  1.5994 2.4496 141.5 22.1 3.8m 117
2021 11 28 23  01 31 20.525   +25 19 56.69  1.5996 2.4495 141.4 22.1 3.8m 117